Time,TemperatureF,DewpointF,PressureIn,WindDirection,WindDirectionDegrees,WindSpeedMPH,WindSpeedGustMPH,Humidity,HourlyPrecipIn,Conditions,Clouds,dailyrainin,SoftwareType,DateUTC
2013-08-22 00:00:00,80.7,66.5,30.15,South,180,0.0,12.3,62,0.00,,,0.00,WUHU216HW,2013-08-22 04:00:00,
2013-08-22 00:01:00,80.7,66.5,30.15,South,180,0.0,12.3,62,0.00,,,0.00,WUHU216HW,2013-08-22 04:01:00,
2013-08-22 00:06:00,80.4,66.2,30.13,SSW,203,5.5,9.1,62,0.00,,,0.00,WUHU216HW,2013-08-22 04:06:00,
2013-08-22 00:11:00,80.4,66.2,30.14,South,180,5.3,5.5,62,0.00,,,0.00,WUHU216HW,2013-08-22 04:11:00,
2013-08-22 00:16:00,80.4,66.2,30.13,SSW,203,7.6,7.6,62,0.00,,,0.00,WUHU216HW,2013-08-22 04:16:00,
2013-08-22 00:21:00,80.2,66.4,30.14,WSW,248,3.8,8.5,63,0.00,,,0.00,WUHU216HW,2013-08-22 04:21:00,
2013-08-22 00:26:00,80.0,66.3,30.14,SSW,203,2.2,8.5,63,0.00,,,0.00,WUHU216HW,2013-08-22 04:26:00,
2013-08-22 00:31:00,79.8,66.5,30.14,SW,225,0.8,7.6,64,0.00,,,0.00,WUHU216HW,2013-08-22 04:31:00,
2013-08-22 00:36:00,79.5,66.7,30.13,SSW,203,0.0,5.5,65,0.00,,,0.00,WUHU216HW,2013-08-22 04:36:00,
2013-08-22 00:41:00,79.3,66.5,30.14,WSW,248,0.0,2.4,65,0.00,,,0.00,WUHU216HW,2013-08-22 04:41:00,
2013-08-22 00:46:00,78.9,66.6,30.16,WNW,293,0.0,2.0,66,0.00,,,0.00,WUHU216HW,2013-08-22 04:46:00,
2013-08-22 00:51:00,78.4,66.5,30.16,NNW,338,0.0,2.0,67,0.00,,,0.00,WUHU216HW,2013-08-22 04:51:00,
2013-08-22 00:56:00,78.0,66.6,30.17,WSW,248,0.0,0.0,68,0.00,,,0.00,WUHU216HW,2013-08-22 04:56:00,
2013-08-22 01:01:00,77.9,67.3,30.17,SSW,203,0.0,0.0,70,0.00,,,0.00,WUHU216HW,2013-08-22 05:01:00,
2013-08-22 01:06:00,77.5,67.0,30.17,West,270,0.0,0.0,70,0.00,,,0.00,WUHU216HW,2013-08-22 05:06:00,
2013-08-22 01:11:00,77.1,67.4,30.17,SSW,203,0.0,0.0,72,0.00,,,0.00,WUHU216HW,2013-08-22 05:11:00,
2013-08-22 01:16:00,76.8,67.5,30.20,South,180,3.5,3.5,73,0.00,,,0.00,WUHU216HW,2013-08-22 05:16:00,
2013-08-22 01:21:00,76.1,67.3,30.23,NNE,23,2.6,6.4,74,0.00,,,0.00,WUHU216HW,2013-08-22 05:21:00,
2013-08-22 01:26:00,75.9,67.4,30.23,NNW,338,1.3,8.7,75,0.00,,,0.00,WUHU216HW,2013-08-22 05:26:00,
2013-08-22 01:31:00,74.8,66.0,30.25,NNE,23,1.5,8.7,74,0.08,,,0.08,WUHU216HW,2013-08-22 05:31:00,
2013-08-22 01:36:00,73.2,64.8,30.24,NE,45,0.0,1.5,75,0.12,,,0.12,WUHU216HW,2013-08-22 05:36:00,
2013-08-22 01:41:00,72.6,64.3,30.22,NNE,23,0.0,0.0,75,0.16,,,0.14,WUHU216HW,2013-08-22 05:41:00,
2013-08-22 01:46:00,72.1,64.1,30.25,North,0,0.0,0.0,76,0.22,,,0.22,WUHU216HW,2013-08-22 05:46:00,
2013-08-22 01:51:00,71.4,63.8,30.23,NE,45,0.0,0.0,77,0.28,,,0.24,WUHU216HW,2013-08-22 05:51:00,
2013-08-22 01:56:00,71.2,63.6,30.24,NE,45,0.0,0.0,77,0.28,,,0.28,WUHU216HW,2013-08-22 05:56:00,
2013-08-22 02:01:00,70.8,63.2,30.25,NE,45,0.0,0.0,77,0.32,,,0.32,WUHU216HW,2013-08-22 06:01:00,
2013-08-22 02:05:00,70.7,63.4,30.24,ENE,68,0.0,0.0,78,0.32,,,0.32,WUHU216HW,2013-08-22 06:05:00,
2013-08-22 02:10:00,70.5,63.2,30.21,ESE,113,0.0,0.0,78,0.32,,,0.32,WUHU216HW,2013-08-22 06:10:00,
2013-08-22 02:15:00,69.9,63.1,30.21,ESE,113,0.0,0.0,79,0.32,,,0.32,WUHU216HW,2013-08-22 06:15:00,
2013-08-22 02:20:00,69.8,62.9,30.21,NE,45,0.0,0.0,79,0.39,,,0.36,WUHU216HW,2013-08-22 06:20:00,
2013-08-22 02:25:00,69.6,62.7,30.21,East,90,0.0,2.2,79,0.37,,,0.38,WUHU216HW,2013-08-22 06:25:00,
2013-08-22 02:30:00,69.4,62.9,30.21,East,90,0.0,2.2,80,0.30,,,0.40,WUHU216HW,2013-08-22 06:30:00,
2013-08-22 02:35:00,69.4,62.9,30.21,ESE,113,2.4,2.4,80,0.28,,,0.40,WUHU216HW,2013-08-22 06:35:00,
2013-08-22 02:40:00,69.0,62.9,30.20,ESE,113,0.0,2.4,81,0.18,,,0.40,WUHU216HW,2013-08-22 06:40:00,
2013-08-22 02:45:00,68.5,62.8,30.21,SE,135,0.0,2.4,82,0.16,,,0.40,WUHU216HW,2013-08-22 06:45:00,
2013-08-22 02:50:00,68.3,62.6,30.21,SSW,203,0.0,0.0,82,0.12,,,0.40,WUHU216HW,2013-08-22 06:50:00,
2013-08-22 02:55:00,68.1,62.8,30.20,SE,135,0.0,0.0,83,0.12,,,0.40,WUHU216HW,2013-08-22 06:55:00,
2013-08-22 03:00:00,67.8,62.8,30.18,SSE,158,2.2,2.2,84,0.08,,,0.40,WUHU216HW,2013-08-22 07:00:00,
2013-08-22 03:05:00,67.8,63.1,30.16,SSE,158,0.0,2.2,85,0.08,,,0.40,WUHU216HW,2013-08-22 07:05:00,
2013-08-22 03:10:00,67.6,62.9,30.16,South,180,0.6,2.2,85,0.08,,,0.40,WUHU216HW,2013-08-22 07:10:00,
2013-08-22 03:15:00,67.6,62.9,30.17,ESE,113,0.8,0.8,85,0.04,,,0.40,WUHU216HW,2013-08-22 07:15:00,
2013-08-22 03:20:00,67.6,62.9,30.17,ESE,113,0.0,0.8,85,0.04,,,0.40,WUHU216HW,2013-08-22 07:20:00,
2013-08-22 03:25:00,67.6,62.9,30.16,South,180,0.0,0.0,85,0.00,,,0.40,WUHU216HW,2013-08-22 07:25:00,
2013-08-22 03:30:00,67.6,62.9,30.16,South,180,0.0,0.0,85,0.00,,,0.40,WUHU216HW,2013-08-22 07:30:00,
2013-08-22 03:35:00,67.6,62.9,30.15,SE,135,0.0,0.0,85,0.00,,,0.40,WUHU216HW,2013-08-22 07:35:00,
2013-08-22 03:40:00,67.4,62.7,30.15,SE,135,0.0,0.0,85,0.00,,,0.40,WUHU216HW,2013-08-22 07:40:00,
2013-08-22 03:45:00,67.2,62.6,30.15,SSE,158,0.0,0.0,85,0.00,,,0.40,WUHU216HW,2013-08-22 07:45:00,
2013-08-22 03:50:00,67.2,62.9,30.16,South,180,1.5,1.5,86,0.00,,,0.40,WUHU216HW,2013-08-22 07:50:00,
2013-08-22 03:55:00,67.2,62.9,30.16,SSW,203,2.4,2.4,86,0.00,,,0.40,WUHU216HW,2013-08-22 07:55:00,
2013-08-22 04:00:00,67.1,62.7,30.16,South,180,0.0,2.4,86,0.00,,,0.40,WUHU216HW,2013-08-22 08:00:00,
2013-08-22 04:05:00,66.9,62.8,30.16,South,180,0.6,2.4,87,0.00,,,0.40,WUHU216HW,2013-08-22 08:05:00,
2013-08-22 04:10:00,66.9,62.8,30.15,SSE,158,0.0,0.6,87,0.00,,,0.40,WUHU216HW,2013-08-22 08:10:00,
2013-08-22 04:16:00,66.9,62.8,30.14,SSE,158,0.0,0.6,87,0.00,,,0.40,WUHU216HW,2013-08-22 08:16:00,
2013-08-22 04:21:00,66.7,62.7,30.13,SSE,158,0.0,0.0,87,0.00,,,0.40,WUHU216HW,2013-08-22 08:21:00,
2013-08-22 04:25:00,66.7,62.7,30.13,South,180,1.1,1.1,87,0.00,,,0.40,WUHU216HW,2013-08-22 08:25:00,
2013-08-22 04:31:00,66.7,62.7,30.13,SSW,203,0.0,1.1,87,0.00,,,0.40,WUHU216HW,2013-08-22 08:31:00,
2013-08-22 04:36:00,66.7,62.7,30.13,SW,225,0.0,1.1,87,0.00,,,0.40,WUHU216HW,2013-08-22 08:36:00,
2013-08-22 04:40:00,66.7,62.7,30.13,SW,225,0.0,0.0,87,0.00,,,0.40,WUHU216HW,2013-08-22 08:40:00,
2013-08-22 04:45:00,66.7,62.7,30.13,SW,225,0.0,0.0,87,0.00,,,0.40,WUHU216HW,2013-08-22 08:45:00,
2013-08-22 04:50:00,66.9,63.2,30.13,SW,225,0.0,0.0,88,0.00,,,0.40,WUHU216HW,2013-08-22 08:50:00,
2013-08-22 04:55:00,66.9,63.2,30.13,SW,225,0.0,0.0,88,0.00,,,0.40,WUHU216HW,2013-08-22 08:55:00,
2013-08-22 05:00:00,66.9,63.2,30.13,SW,225,0.0,0.0,88,0.00,,,0.40,WUHU216HW,2013-08-22 09:00:00,
2013-08-22 05:05:00,66.9,63.2,30.13,SSW,203,0.0,0.0,88,0.00,,,0.40,WUHU216HW,2013-08-22 09:05:00,
2013-08-22 05:10:00,66.9,63.2,30.14,SSW,203,0.0,0.0,88,0.00,,,0.40,WUHU216HW,2013-08-22 09:10:00,
2013-08-22 05:15:00,66.9,63.2,30.14,SSW,203,0.0,0.0,88,0.00,,,0.40,WUHU216HW,2013-08-22 09:15:00,
2013-08-22 05:21:00,66.9,63.2,30.14,SSW,203,0.0,0.0,88,0.00,,,0.40,WUHU216HW,2013-08-22 09:21:00,
2013-08-22 05:26:00,67.1,63.3,30.13,SSW,203,0.0,0.0,88,0.00,,,0.40,WUHU216HW,2013-08-22 09:26:00,
2013-08-22 05:31:00,66.9,63.2,30.14,SSW,203,0.0,0.0,88,0.00,,,0.40,WUHU216HW,2013-08-22 09:31:00,
2013-08-22 05:36:00,67.1,63.3,30.14,SSW,203,0.0,0.0,88,0.00,,,0.40,WUHU216HW,2013-08-22 09:36:00,
2013-08-22 05:40:00,67.1,63.3,30.14,SSW,203,0.0,0.0,88,0.00,,,0.40,WUHU216HW,2013-08-22 09:40:00,
2013-08-22 05:45:00,67.1,63.3,30.13,SSW,203,0.0,0.0,88,0.00,,,0.40,WUHU216HW,2013-08-22 09:45:00,
2013-08-22 05:50:00,67.2,63.5,30.14,SSW,203,0.0,0.0,88,0.00,,,0.40,WUHU216HW,2013-08-22 09:50:00,
2013-08-22 05:55:00,67.2,63.5,30.14,SSW,203,0.0,0.0,88,0.00,,,0.40,WUHU216HW,2013-08-22 09:55:00,
2013-08-22 06:00:00,67.2,63.5,30.13,SSW,203,0.0,0.0,88,0.00,,,0.40,WUHU216HW,2013-08-22 10:00:00,
2013-08-22 06:05:00,67.2,63.5,30.13,SSW,203,0.0,0.0,88,0.00,,,0.40,WUHU216HW,2013-08-22 10:05:00,
2013-08-22 06:10:00,67.2,63.5,30.14,SSW,203,0.0,0.0,88,0.00,,,0.40,WUHU216HW,2013-08-22 10:10:00,
2013-08-22 06:15:00,67.2,63.5,30.14,SSW,203,0.0,0.0,88,0.00,,,0.40,WUHU216HW,2013-08-22 10:15:00,
2013-08-22 06:20:00,67.4,63.7,30.14,SSW,203,0.0,0.0,88,0.00,,,0.40,WUHU216HW,2013-08-22 10:20:00,
2013-08-22 06:25:00,67.4,63.7,30.14,SSW,203,0.0,0.0,88,0.00,,,0.40,WUHU216HW,2013-08-22 10:25:00,
2013-08-22 06:30:00,67.4,63.7,30.14,SSW,203,0.0,0.0,88,0.00,,,0.40,WUHU216HW,2013-08-22 10:30:00,
2013-08-22 06:35:00,67.6,63.9,30.15,SSW,203,0.0,0.0,88,0.00,,,0.40,WUHU216HW,2013-08-22 10:35:00,
2013-08-22 06:40:00,67.6,63.9,30.14,SSW,203,0.0,0.0,88,0.00,,,0.40,WUHU216HW,2013-08-22 10:40:00,
2013-08-22 06:45:00,67.6,63.9,30.14,SSW,203,0.0,0.0,88,0.00,,,0.40,WUHU216HW,2013-08-22 10:45:00,
2013-08-22 06:50:00,67.6,63.9,30.14,SSW,203,0.0,0.0,88,0.00,,,0.40,WUHU216HW,2013-08-22 10:50:00,
2013-08-22 06:51:00,67.6,63.9,30.14,SSW,203,0.0,0.0,88,0.00,,,0.40,WUHU216HW,2013-08-22 10:51:00,
2013-08-22 06:52:00,67.6,63.9,30.14,SSW,203,0.0,0.0,88,0.00,,,0.40,WUHU216HW,2013-08-22 10:52:00,
2013-08-22 06:53:00,67.6,63.9,30.14,SSW,203,0.0,0.0,88,0.00,,,0.40,WUHU216HW,2013-08-22 10:53:00,
2013-08-22 06:54:00,67.6,63.9,30.14,SSW,203,0.0,0.0,88,0.00,,,0.40,WUHU216HW,2013-08-22 10:54:00,
2013-08-22 06:55:00,67.8,64.1,30.14,SSW,203,0.0,0.0,88,0.00,,,0.40,WUHU216HW,2013-08-22 10:55:00,
2013-08-22 06:56:00,67.8,64.1,30.14,SSW,203,0.0,0.0,88,0.00,,,0.40,WUHU216HW,2013-08-22 10:56:00,
2013-08-22 06:57:00,67.8,64.1,30.14,SSW,203,0.0,0.0,88,0.00,,,0.40,WUHU216HW,2013-08-22 10:57:00,
2013-08-22 06:58:00,67.8,64.1,30.14,SSW,203,0.0,0.0,88,0.00,,,0.40,WUHU216HW,2013-08-22 10:58:00,
2013-08-22 06:59:00,67.8,64.1,30.14,SW,225,0.0,0.0,88,0.00,,,0.40,WUHU216HW,2013-08-22 10:59:00,
2013-08-22 07:00:00,67.8,64.1,30.14,SW,225,0.0,0.0,88,0.00,,,0.40,WUHU216HW,2013-08-22 11:00:00,
2013-08-22 07:02:00,67.8,64.1,30.14,SW,225,0.0,0.0,88,0.00,,,0.40,WUHU216HW,2013-08-22 11:02:00,
2013-08-22 07:03:00,67.8,64.1,30.14,SW,225,1.3,1.3,88,0.00,,,0.40,WUHU216HW,2013-08-22 11:03:00,
2013-08-22 07:04:00,67.8,64.1,30.14,SW,225,1.3,1.3,88,0.00,,,0.40,WUHU216HW,2013-08-22 11:04:00,
2013-08-22 07:05:00,68.1,64.7,30.14,SSW,203,0.0,1.3,89,0.00,,,0.40,WUHU216HW,2013-08-22 11:05:00,
2013-08-22 07:06:00,68.1,64.7,30.14,SSW,203,0.0,1.3,89,0.00,,,0.40,WUHU216HW,2013-08-22 11:06:00,
2013-08-22 07:07:00,68.3,64.9,30.14,SSW,203,0.0,1.3,89,0.00,,,0.40,WUHU216HW,2013-08-22 11:07:00,
2013-08-22 07:08:00,68.3,64.9,30.14,SSW,203,0.0,1.3,89,0.00,,,0.40,WUHU216HW,2013-08-22 11:08:00,
2013-08-22 07:09:00,68.3,65.1,30.14,SSW,203,5.3,5.3,89,0.00,,,0.40,WUHU216HW,2013-08-22 11:09:00,
2013-08-22 07:10:00,68.5,65.1,30.14,SSW,203,5.3,5.3,89,0.00,,,0.40,WUHU216HW,2013-08-22 11:10:00,
2013-08-22 07:11:00,68.5,65.1,30.14,SSW,203,5.3,5.3,89,0.00,,,0.40,WUHU216HW,2013-08-22 11:11:00,
2013-08-22 07:12:00,68.7,65.3,30.14,SSW,203,2.4,5.3,89,0.00,,,0.40,WUHU216HW,2013-08-22 11:12:00,
2013-08-22 07:13:00,68.7,65.3,30.14,SSW,203,2.4,5.3,89,0.00,,,0.40,WUHU216HW,2013-08-22 11:13:00,
2013-08-22 07:14:00,68.9,65.4,30.15,SSW,203,3.3,5.3,89,0.00,,,0.40,WUHU216HW,2013-08-22 11:14:00,
2013-08-22 07:15:00,68.9,65.4,30.15,SSW,203,3.3,5.3,89,0.00,,,0.40,WUHU216HW,2013-08-22 11:15:00,
2013-08-22 07:16:00,69.0,65.6,30.15,SSW,203,4.2,5.3,89,0.00,,,0.40,WUHU216HW,2013-08-22 11:16:00,
2013-08-22 07:17:00,69.0,65.6,30.15,SSW,203,4.2,5.3,89,0.00,,,0.40,WUHU216HW,2013-08-22 11:17:00,
2013-08-22 07:18:00,69.2,65.8,30.15,SW,225,0.8,5.3,89,0.00,,,0.40,WUHU216HW,2013-08-22 11:18:00,
2013-08-22 07:19:00,69.2,65.8,30.15,SW,225,0.8,5.3,89,0.00,,,0.40,WUHU216HW,2013-08-22 11:19:00,
2013-08-22 07:20:00,69.4,66.0,30.15,SSW,203,1.1,5.3,89,0.00,,,0.40,WUHU216HW,2013-08-22 11:20:00,
2013-08-22 07:21:00,69.4,66.0,30.15,SSW,203,1.1,4.2,89,0.00,,,0.40,WUHU216HW,2013-08-22 11:21:00,
2013-08-22 07:22:00,69.4,66.0,30.14,SSW,203,5.8,5.8,89,0.00,,,0.40,WUHU216HW,2013-08-22 11:22:00,
2013-08-22 07:23:00,69.4,66.0,30.15,SSW,203,5.8,5.8,89,0.00,,,0.40,WUHU216HW,2013-08-22 11:23:00,
2013-08-22 07:24:00,69.4,66.0,30.15,SSW,203,0.8,5.8,89,0.00,,,0.40,WUHU216HW,2013-08-22 11:24:00,
2013-08-22 07:26:00,69.6,66.2,30.15,SSW,203,0.8,5.8,89,0.00,,,0.40,WUHU216HW,2013-08-22 11:26:00,
2013-08-22 07:27:00,69.6,66.2,30.15,SSW,203,2.2,5.8,89,0.00,,,0.40,WUHU216HW,2013-08-22 11:27:00,
2013-08-22 07:28:00,69.6,66.2,30.15,SSW,203,2.2,5.8,89,0.00,,,0.40,WUHU216HW,2013-08-22 11:28:00,
2013-08-22 07:29:00,69.6,66.2,30.15,SSW,203,0.0,5.8,89,0.00,,,0.40,WUHU216HW,2013-08-22 11:29:00,
2013-08-22 07:30:00,69.6,66.2,30.15,SSW,203,0.0,5.8,89,0.00,,,0.40,WUHU216HW,2013-08-22 11:30:00,
2013-08-22 07:31:00,69.6,66.2,30.15,SSW,203,3.8,5.8,89,0.00,,,0.40,WUHU216HW,2013-08-22 11:31:00,
2013-08-22 07:32:00,69.6,66.2,30.15,SSW,203,3.8,5.8,89,0.00,,,0.40,WUHU216HW,2013-08-22 11:32:00,
2013-08-22 07:33:00,69.8,66.3,30.15,SSW,203,0.0,3.8,89,0.00,,,0.40,WUHU216HW,2013-08-22 11:33:00,
2013-08-22 07:35:00,69.8,66.3,30.15,SSW,203,0.0,3.8,89,0.00,,,0.40,WUHU216HW,2013-08-22 11:35:00,
2013-08-22 07:36:00,69.8,66.3,30.15,SSW,203,0.0,3.8,89,0.00,,,0.40,WUHU216HW,2013-08-22 11:36:00,
2013-08-22 07:37:00,69.9,66.5,30.15,SSW,203,2.6,3.8,89,0.00,,,0.40,WUHU216HW,2013-08-22 11:37:00,
2013-08-22 07:38:00,69.9,66.5,30.15,SSW,203,2.6,3.8,89,0.00,,,0.40,WUHU216HW,2013-08-22 11:38:00,
2013-08-22 07:39:00,69.9,66.5,30.15,SSW,203,2.6,3.8,89,0.00,,,0.40,WUHU216HW,2013-08-22 11:39:00,
2013-08-22 07:40:00,69.9,66.5,30.15,SSW,203,2.6,3.8,89,0.00,,,0.40,WUHU216HW,2013-08-22 11:40:00,
2013-08-22 07:41:00,70.1,66.7,30.15,SSW,203,3.1,3.8,89,0.00,,,0.40,WUHU216HW,2013-08-22 11:41:00,
2013-08-22 07:42:00,70.3,66.9,30.15,SSW,203,0.0,3.1,89,0.00,,,0.40,WUHU216HW,2013-08-22 11:42:00,
2013-08-22 07:43:00,70.3,66.9,30.15,SSW,203,0.0,3.1,89,0.00,,,0.40,WUHU216HW,2013-08-22 11:43:00,
2013-08-22 07:44:00,70.3,66.9,30.15,SSW,203,4.6,4.6,89,0.00,,,0.40,WUHU216HW,2013-08-22 11:44:00,
2013-08-22 07:45:00,70.3,66.9,30.15,SSW,203,4.6,4.6,89,0.00,,,0.40,WUHU216HW,2013-08-22 11:45:00,
2013-08-22 07:46:00,70.3,66.9,30.15,SSW,203,1.3,4.6,89,0.00,,,0.40,WUHU216HW,2013-08-22 11:46:00,
2013-08-22 07:47:00,70.3,66.9,30.14,SSW,203,1.3,4.6,89,0.00,,,0.40,WUHU216HW,2013-08-22 11:47:00,
2013-08-22 07:48:00,70.5,67.1,30.14,SSW,203,2.0,4.6,89,0.00,,,0.40,WUHU216HW,2013-08-22 11:48:00,
2013-08-22 07:49:00,70.5,67.1,30.14,SSW,203,2.0,4.6,89,0.00,,,0.40,WUHU216HW,2013-08-22 11:49:00,
2013-08-22 07:50:00,70.5,67.1,30.14,SW,225,2.4,4.6,89,0.00,,,0.40,WUHU216HW,2013-08-22 11:50:00,
2013-08-22 07:52:00,70.7,66.9,30.15,SSW,203,4.2,4.6,88,0.00,,,0.40,WUHU216HW,2013-08-22 11:52:00,
2013-08-22 07:53:00,70.7,66.9,30.14,SSW,203,4.2,4.6,88,0.00,,,0.40,WUHU216HW,2013-08-22 11:53:00,
2013-08-22 07:54:00,70.7,66.9,30.14,SSW,203,1.7,4.6,88,0.00,,,0.40,WUHU216HW,2013-08-22 11:54:00,
2013-08-22 07:55:00,70.7,66.9,30.15,SSW,203,1.7,4.2,88,0.00,,,0.40,WUHU216HW,2013-08-22 11:55:00,
2013-08-22 07:57:00,70.8,67.1,30.15,SSW,203,0.6,4.2,88,0.00,,,0.40,WUHU216HW,2013-08-22 11:57:00,
2013-08-22 07:58:00,70.8,67.1,30.14,SSW,203,0.6,4.2,88,0.00,,,0.40,WUHU216HW,2013-08-22 11:58:00,
2013-08-22 07:59:00,70.8,67.1,30.15,SW,225,6.7,6.7,88,0.00,,,0.40,WUHU216HW,2013-08-22 11:59:00,
2013-08-22 08:00:00,70.8,67.1,30.15,SW,225,6.7,6.7,88,0.00,,,0.40,WUHU216HW,2013-08-22 12:00:00,
2013-08-22 08:01:00,70.8,67.1,30.14,SW,225,6.7,6.7,88,0.00,,,0.40,WUHU216HW,2013-08-22 12:01:00,
2013-08-22 08:02:00,70.8,67.1,30.15,SW,225,6.7,6.7,88,0.00,,,0.40,WUHU216HW,2013-08-22 12:02:00,
2013-08-22 08:03:00,70.8,67.1,30.14,SSW,203,0.6,6.7,88,0.00,,,0.40,WUHU216HW,2013-08-22 12:03:00,
2013-08-22 08:06:00,71.2,67.4,30.14,SSW,203,4.4,6.7,88,0.00,,,0.40,WUHU216HW,2013-08-22 12:06:00,
2013-08-22 08:07:00,71.2,67.1,30.14,SW,225,3.1,6.7,87,0.00,,,0.40,WUHU216HW,2013-08-22 12:07:00,
2013-08-22 08:08:00,71.2,67.1,30.14,SW,225,3.1,6.7,87,0.00,,,0.40,WUHU216HW,2013-08-22 12:08:00,
2013-08-22 08:09:00,71.2,67.1,30.14,SW,225,4.4,6.7,87,0.00,,,0.40,WUHU216HW,2013-08-22 12:09:00,
2013-08-22 08:10:00,71.2,67.1,30.14,SW,225,4.4,6.7,87,0.00,,,0.40,WUHU216HW,2013-08-22 12:10:00,
2013-08-22 08:11:00,71.2,67.1,30.14,SSW,203,1.3,6.7,87,0.00,,,0.40,WUHU216HW,2013-08-22 12:11:00,
2013-08-22 08:13:00,71.2,67.1,30.15,SSW,203,1.3,4.4,87,0.00,,,0.40,WUHU216HW,2013-08-22 12:13:00,
2013-08-22 08:14:00,71.4,67.3,30.15,SSW,203,0.0,4.4,87,0.00,,,0.40,WUHU216HW,2013-08-22 12:14:00,
2013-08-22 08:15:00,71.4,67.3,30.15,SSW,203,0.0,4.4,87,0.00,,,0.40,WUHU216HW,2013-08-22 12:15:00,
2013-08-22 08:16:00,71.4,67.1,30.15,SSW,203,1.1,4.4,87,0.00,,,0.40,WUHU216HW,2013-08-22 12:16:00,
2013-08-22 08:17:00,71.2,67.1,30.15,SSW,203,1.1,4.4,87,0.00,,,0.40,WUHU216HW,2013-08-22 12:17:00,
2013-08-22 08:18:00,71.4,67.3,30.15,SSW,203,1.5,4.4,87,0.00,,,0.40,WUHU216HW,2013-08-22 12:18:00,
2013-08-22 08:27:00,71.6,67.5,30.16,SSW,203,3.8,4.9,87,0.00,,,0.40,WUHU216HW,2013-08-22 12:27:00,
2013-08-22 08:32:00,71.7,67.6,30.16,SSW,203,1.7,4.9,87,0.00,,,0.40,WUHU216HW,2013-08-22 12:32:00,
2013-08-22 08:37:00,72.1,68.0,30.16,SSW,203,4.2,4.2,87,0.00,,,0.40,WUHU216HW,2013-08-22 12:37:00,
2013-08-22 08:42:00,72.3,68.2,30.15,SW,225,2.0,4.2,87,0.00,,,0.40,WUHU216HW,2013-08-22 12:42:00,
2013-08-22 08:47:00,72.3,67.8,30.16,SSW,203,4.4,4.4,86,0.00,,,0.40,WUHU216HW,2013-08-22 12:47:00,
2013-08-22 08:52:00,72.3,67.8,30.16,SSW,203,0.6,4.4,86,0.00,,,0.40,WUHU216HW,2013-08-22 12:52:00,
2013-08-22 08:57:00,72.5,68.0,30.16,SW,225,7.1,9.6,86,0.00,,,0.40,WUHU216HW,2013-08-22 12:57:00,
2013-08-22 09:00:00,72.5,68.0,30.16,SSW,203,8.2,9.6,86,0.00,,,0.40,WUHU216HW,2013-08-22 13:00:00,
2013-08-22 09:05:00,72.8,68.4,30.16,SSW,203,4.4,8.2,86,0.00,,,0.40,WUHU216HW,2013-08-22 13:05:00,
2013-08-22 09:10:00,73.0,68.6,30.16,SSW,203,3.8,7.3,86,0.00,,,0.40,WUHU216HW,2013-08-22 13:10:00,
2013-08-22 09:15:00,73.0,68.6,30.16,South,180,3.8,7.3,86,0.00,,,0.40,WUHU216HW,2013-08-22 13:15:00,
2013-08-22 09:20:00,73.2,68.4,30.17,WSW,248,8.0,8.0,85,0.00,,,0.40,WUHU216HW,2013-08-22 13:20:00,
2013-08-22 09:25:00,73.4,68.6,30.16,South,180,1.5,8.0,85,0.00,,,0.40,WUHU216HW,2013-08-22 13:25:00,
2013-08-22 09:30:00,73.4,68.6,30.17,SSW,203,1.7,8.0,85,0.00,,,0.40,WUHU216HW,2013-08-22 13:30:00,
2013-08-22 09:35:00,73.2,68.4,30.16,SSW,203,3.8,6.9,85,0.00,,,0.40,WUHU216HW,2013-08-22 13:35:00,
2013-08-22 09:40:00,73.2,68.4,30.16,SSW,203,6.4,6.9,85,0.00,,,0.40,WUHU216HW,2013-08-22 13:40:00,
2013-08-22 09:46:00,73.5,68.8,30.16,WSW,248,0.0,6.4,85,0.00,,,0.40,WUHU216HW,2013-08-22 13:46:00,
2013-08-22 09:51:00,73.5,68.8,30.16,WSW,248,3.8,8.5,85,0.00,,,0.40,WUHU216HW,2013-08-22 13:51:00,
2013-08-22 09:56:00,73.7,68.9,30.17,SSW,203,4.4,8.5,85,0.00,,,0.40,WUHU216HW,2013-08-22 13:56:00,
2013-08-22 10:01:00,73.9,69.1,30.16,SSW,203,5.8,5.8,85,0.00,,,0.40,WUHU216HW,2013-08-22 14:01:00,
2013-08-22 10:06:00,74.1,69.3,30.16,SSW,203,6.0,7.1,85,0.00,,,0.40,WUHU216HW,2013-08-22 14:06:00,
2013-08-22 10:11:00,74.1,69.3,30.16,SW,225,6.0,7.1,85,0.00,,,0.40,WUHU216HW,2013-08-22 14:11:00,
2013-08-22 10:16:00,74.3,69.5,30.16,SSW,203,5.1,6.0,85,0.00,,,0.40,WUHU216HW,2013-08-22 14:16:00,
2013-08-22 10:21:00,74.1,69.0,30.16,South,180,2.2,6.0,84,0.00,,,0.40,WUHU216HW,2013-08-22 14:21:00,
2013-08-22 10:26:00,74.1,69.0,30.16,SW,225,3.5,3.5,84,0.00,,,0.40,WUHU216HW,2013-08-22 14:26:00,
2013-08-22 10:31:00,74.1,69.0,30.16,WSW,248,10.5,10.5,84,0.00,,,0.40,WUHU216HW,2013-08-22 14:31:00,
2013-08-22 10:36:00,74.1,69.0,30.16,SSW,203,0.0,10.5,84,0.00,,,0.40,WUHU216HW,2013-08-22 14:36:00,
2013-08-22 10:41:00,74.1,69.0,30.16,SSE,158,3.5,6.7,84,0.00,,,0.40,WUHU216HW,2013-08-22 14:41:00,
2013-08-22 10:46:00,74.1,69.0,30.16,SSW,203,4.2,6.7,84,0.00,,,0.40,WUHU216HW,2013-08-22 14:46:00,
2013-08-22 10:51:00,74.1,69.0,30.16,SSW,203,4.2,4.4,84,0.00,,,0.40,WUHU216HW,2013-08-22 14:51:00,
2013-08-22 10:56:00,74.1,68.6,30.16,SW,225,5.5,8.5,83,0.00,,,0.40,WUHU216HW,2013-08-22 14:56:00,
2013-08-22 11:01:00,74.1,68.6,30.17,WSW,248,0.8,8.5,83,0.00,,,0.40,WUHU216HW,2013-08-22 15:01:00,
2013-08-22 11:06:00,74.3,68.8,30.17,SW,225,1.5,5.8,83,0.00,,,0.40,WUHU216HW,2013-08-22 15:06:00,
2013-08-22 11:11:00,74.4,68.6,30.18,SW,225,6.2,9.1,82,0.00,,,0.40,WUHU216HW,2013-08-22 15:11:00,
2013-08-22 11:16:00,74.4,68.6,30.18,SW,225,10.5,10.5,82,0.00,,,0.40,WUHU216HW,2013-08-22 15:16:00,
2013-08-22 11:21:00,74.8,69.0,30.18,SSW,203,4.4,10.5,82,0.00,,,0.40,WUHU216HW,2013-08-22 15:21:00,
2013-08-22 11:26:00,75.0,69.2,30.18,SSW,203,3.8,4.4,82,0.00,,,0.40,WUHU216HW,2013-08-22 15:26:00,
2013-08-22 11:31:00,75.0,69.2,30.18,SW,225,0.0,4.4,82,0.00,,,0.40,WUHU216HW,2013-08-22 15:31:00,
2013-08-22 11:36:00,75.3,69.2,30.18,SSW,203,6.7,6.7,81,0.00,,,0.40,WUHU216HW,2013-08-22 15:36:00,
2013-08-22 11:41:00,75.3,69.2,30.18,WNW,293,0.0,6.7,81,0.00,,,0.40,WUHU216HW,2013-08-22 15:41:00,
2013-08-22 11:46:00,75.3,69.2,30.18,WSW,248,6.2,8.0,81,0.00,,,0.40,WUHU216HW,2013-08-22 15:46:00,
2013-08-22 11:51:00,75.9,69.7,30.18,SW,225,6.0,8.0,81,0.00,,,0.40,WUHU216HW,2013-08-22 15:51:00,
2013-08-22 11:55:00,76.1,69.5,30.18,WSW,248,9.1,9.1,80,0.00,,,0.40,WUHU216HW,2013-08-22 15:55:00,
2013-08-22 12:00:00,76.1,69.5,30.18,West,270,1.3,9.1,80,0.00,,,0.40,WUHU216HW,2013-08-22 16:00:00,
2013-08-22 12:05:00,76.2,69.6,30.18,WSW,248,1.3,9.1,80,0.00,,,0.40,WUHU216HW,2013-08-22 16:05:00,
2013-08-22 12:10:00,76.2,69.2,30.18,SSW,203,2.6,6.9,79,0.00,,,0.40,WUHU216HW,2013-08-22 16:10:00,
2013-08-22 12:15:00,76.2,69.2,30.19,SSW,203,0.0,2.6,79,0.00,,,0.40,WUHU216HW,2013-08-22 16:15:00,
2013-08-22 12:20:00,75.9,69.3,30.19,SW,225,1.1,3.1,80,0.00,,,0.40,WUHU216HW,2013-08-22 16:20:00,
2013-08-22 12:25:00,75.9,69.3,30.19,SW,225,4.4,4.4,80,0.00,,,0.40,WUHU216HW,2013-08-22 16:25:00,
2013-08-22 12:30:00,75.7,68.8,30.19,SW,225,11.4,11.4,79,0.00,,,0.40,WUHU216HW,2013-08-22 16:30:00,
2013-08-22 12:35:00,75.5,69.0,30.20,WSW,248,3.5,11.4,80,0.00,,,0.40,WUHU216HW,2013-08-22 16:35:00,
2013-08-22 12:40:00,75.5,69.3,30.21,WSW,248,2.4,9.6,81,0.00,,,0.40,WUHU216HW,2013-08-22 16:40:00,
2013-08-22 12:45:00,75.5,69.0,30.21,West,270,1.5,8.9,80,0.00,,,0.40,WUHU216HW,2013-08-22 16:45:00,
2013-08-22 12:50:00,75.2,69.0,30.21,SW,225,9.1,9.1,81,0.00,,,0.40,WUHU216HW,2013-08-22 16:50:00,
2013-08-22 12:55:00,74.8,68.7,30.21,SW,225,0.8,9.1,81,0.00,,,0.40,WUHU216HW,2013-08-22 16:55:00,
2013-08-22 13:00:00,74.4,68.6,30.23,SSW,203,9.8,9.8,82,0.00,,,0.40,WUHU216HW,2013-08-22 17:00:00,
2013-08-22 13:05:00,73.9,68.4,30.22,SW,225,4.0,9.8,83,0.00,,,0.40,WUHU216HW,2013-08-22 17:05:00,
2013-08-22 13:10:00,73.5,68.1,30.22,West,270,5.1,9.1,83,0.00,,,0.40,WUHU216HW,2013-08-22 17:10:00,
2013-08-22 13:15:00,73.2,68.1,30.22,SW,225,14.0,14.0,84,0.00,,,0.40,WUHU216HW,2013-08-22 17:15:00,
2013-08-22 13:20:00,72.5,68.0,30.22,ESE,113,8.9,14.0,86,0.12,,,0.51,WUHU216HW,2013-08-22 17:20:00,
2013-08-22 13:25:00,71.9,67.5,30.22,SW,225,6.2,8.9,86,0.16,,,0.53,WUHU216HW,2013-08-22 17:25:00,
2013-08-22 13:30:00,71.4,67.3,30.21,SSW,203,8.7,15.8,87,0.24,,,0.65,WUHU216HW,2013-08-22 17:30:00,
2013-08-22 13:35:00,71.4,67.3,30.22,WNW,293,2.9,15.8,87,0.28,,,0.69,WUHU216HW,2013-08-22 17:35:00,
2013-08-22 13:40:00,71.2,67.1,30.22,SSW,203,3.1,8.0,87,0.28,,,0.69,WUHU216HW,2013-08-22 17:40:00,
2013-08-22 13:45:00,71.2,67.4,30.22,WSW,248,12.0,12.0,88,0.28,,,0.69,WUHU216HW,2013-08-22 17:45:00,
2013-08-22 13:50:00,71.2,67.4,30.22,North,0,0.6,12.0,88,0.28,,,0.69,WUHU216HW,2013-08-22 17:50:00,
2013-08-22 13:55:00,71.0,67.3,30.22,West,270,5.5,5.5,88,0.28,,,0.69,WUHU216HW,2013-08-22 17:55:00,
2013-08-22 14:00:00,70.8,67.1,30.21,North,0,2.2,5.5,88,0.28,,,0.69,WUHU216HW,2013-08-22 18:00:00,
2013-08-22 14:05:00,70.8,67.1,30.22,NNW,338,6.9,6.9,88,0.28,,,0.69,WUHU216HW,2013-08-22 18:05:00,
2013-08-22 14:10:00,70.7,66.9,30.21,NNW,338,4.6,6.9,88,0.28,,,0.69,WUHU216HW,2013-08-22 18:10:00,
2013-08-22 14:15:00,70.7,66.9,30.22,SSW,203,1.5,6.9,88,0.24,,,0.69,WUHU216HW,2013-08-22 18:15:00,
2013-08-22 14:20:00,70.5,66.7,30.22,WNW,293,0.0,1.5,88,0.16,,,0.69,WUHU216HW,2013-08-22 18:20:00,
2013-08-22 14:25:00,70.3,66.5,30.23,NNE,23,9.6,9.6,88,0.08,,,0.69,WUHU216HW,2013-08-22 18:25:00,
2013-08-22 14:30:00,70.3,66.5,30.24,NNW,338,1.7,9.6,88,0.02,,,0.69,WUHU216HW,2013-08-22 18:30:00,
2013-08-22 14:35:00,70.3,66.5,30.23,North,0,1.5,6.0,88,0.00,,,0.69,WUHU216HW,2013-08-22 18:35:00,
2013-08-22 14:40:00,70.3,66.5,30.23,North,0,2.0,2.0,88,0.00,,,0.69,WUHU216HW,2013-08-22 18:40:00,
2013-08-22 14:45:00,70.3,66.5,30.22,North,0,0.6,4.6,88,0.00,,,0.69,WUHU216HW,2013-08-22 18:45:00,
2013-08-22 14:50:00,70.3,66.5,30.22,NNW,338,7.8,7.8,88,0.00,,,0.69,WUHU216HW,2013-08-22 18:50:00,
2013-08-22 14:55:00,70.3,66.2,30.22,North,0,2.0,7.8,87,0.00,,,0.69,WUHU216HW,2013-08-22 18:55:00,
2013-08-22 15:00:00,70.5,66.7,30.22,North,0,0.0,7.8,88,0.00,,,0.69,WUHU216HW,2013-08-22 19:00:00,
2013-08-22 15:05:00,70.5,66.4,30.22,NE,45,0.0,2.4,87,0.00,,,0.69,WUHU216HW,2013-08-22 19:05:00,
2013-08-22 15:10:00,70.5,66.4,30.22,NNE,23,0.0,1.5,87,0.00,,,0.69,WUHU216HW,2013-08-22 19:10:00,
2013-08-22 15:15:00,70.5,66.4,30.22,SE,135,0.0,1.5,87,0.00,,,0.69,WUHU216HW,2013-08-22 19:15:00,
2013-08-22 15:20:00,70.7,66.6,30.22,NNE,23,0.0,0.0,87,0.00,,,0.69,WUHU216HW,2013-08-22 19:20:00,
2013-08-22 15:25:00,70.7,66.6,30.22,West,270,0.0,1.5,87,0.00,,,0.69,WUHU216HW,2013-08-22 19:25:00,
2013-08-22 15:30:00,70.7,66.6,30.21,NE,45,0.0,1.5,87,0.00,,,0.69,WUHU216HW,2013-08-22 19:30:00,
2013-08-22 15:35:00,70.7,66.6,30.21,North,0,0.0,0.6,87,0.00,,,0.69,WUHU216HW,2013-08-22 19:35:00,
2013-08-22 15:40:00,70.7,66.6,30.21,North,0,0.0,0.0,87,0.00,,,0.69,WUHU216HW,2013-08-22 19:40:00,
2013-08-22 15:45:00,70.8,66.7,30.21,NNW,338,1.3,1.3,87,0.00,,,0.69,WUHU216HW,2013-08-22 19:45:00,
2013-08-22 15:50:00,70.8,66.7,30.20,NNW,338,0.0,1.3,87,0.00,,,0.69,WUHU216HW,2013-08-22 19:50:00,
2013-08-22 15:55:00,70.8,66.7,30.20,NNE,23,0.0,1.3,87,0.00,,,0.69,WUHU216HW,2013-08-22 19:55:00,
2013-08-22 16:00:00,71.0,66.9,30.20,NNE,23,0.0,0.0,87,0.00,,,0.69,WUHU216HW,2013-08-22 20:00:00,
2013-08-22 16:05:00,71.2,67.1,30.19,NE,45,0.0,0.0,87,0.00,,,0.69,WUHU216HW,2013-08-22 20:05:00,
2013-08-22 16:10:00,71.2,67.1,30.18,NE,45,0.0,0.0,87,0.00,,,0.69,WUHU216HW,2013-08-22 20:10:00,
2013-08-22 16:15:00,71.4,67.3,30.18,ENE,68,0.0,0.0,87,0.00,,,0.69,WUHU216HW,2013-08-22 20:15:00,
2013-08-22 16:20:00,71.7,67.6,30.18,ENE,68,0.0,0.0,87,0.00,,,0.69,WUHU216HW,2013-08-22 20:20:00,
2013-08-22 16:25:00,71.7,67.3,30.17,ENE,68,0.0,0.0,86,0.00,,,0.69,WUHU216HW,2013-08-22 20:25:00,
2013-08-22 16:30:00,72.1,67.7,30.16,ENE,68,0.0,0.0,86,0.00,,,0.69,WUHU216HW,2013-08-22 20:30:00,
2013-08-22 16:35:00,72.3,67.8,30.16,ENE,68,0.0,0.0,86,0.00,,,0.69,WUHU216HW,2013-08-22 20:35:00,
2013-08-22 16:40:00,72.3,67.8,30.16,ENE,68,0.0,0.0,86,0.00,,,0.69,WUHU216HW,2013-08-22 20:40:00,
2013-08-22 16:45:00,72.3,67.8,30.16,ENE,68,0.0,0.0,86,0.00,,,0.69,WUHU216HW,2013-08-22 20:45:00,
2013-08-22 16:50:00,72.1,67.3,30.14,ESE,113,0.0,0.0,85,0.00,,,0.69,WUHU216HW,2013-08-22 20:50:00,
2013-08-22 16:55:00,71.7,67.0,30.13,ESE,113,0.0,0.0,85,0.00,,,0.69,WUHU216HW,2013-08-22 20:55:00,
2013-08-22 17:00:00,71.7,67.0,30.12,ESE,113,0.0,0.0,85,0.00,,,0.69,WUHU216HW,2013-08-22 21:00:00,
2013-08-22 17:05:00,71.7,67.0,30.11,ESE,113,0.0,1.3,85,0.00,,,0.69,WUHU216HW,2013-08-22 21:05:00,
2013-08-22 17:10:00,71.9,67.5,30.12,ENE,68,0.0,1.3,86,0.00,,,0.69,WUHU216HW,2013-08-22 21:10:00,
2013-08-22 17:15:00,72.5,68.4,30.12,NW,315,0.0,0.0,87,0.00,,,0.69,WUHU216HW,2013-08-22 21:15:00,
2013-08-22 17:20:00,73.7,69.6,30.13,NW,315,0.0,0.0,87,0.00,,,0.69,WUHU216HW,2013-08-22 21:20:00,
2013-08-22 17:25:00,74.3,69.8,30.13,NW,315,0.0,0.0,86,0.00,,,0.69,WUHU216HW,2013-08-22 21:25:00,
2013-08-22 17:30:00,74.8,70.0,30.13,NNW,338,0.0,0.0,85,0.00,,,0.69,WUHU216HW,2013-08-22 21:30:00,
2013-08-22 17:35:00,75.0,69.9,30.13,North,0,0.0,1.1,84,0.00,,,0.69,WUHU216HW,2013-08-22 21:35:00,
2013-08-22 17:40:00,75.3,70.2,30.13,North,0,0.0,1.1,84,0.00,,,0.69,WUHU216HW,2013-08-22 21:40:00,
2013-08-22 17:45:00,75.5,70.2,30.14,NNE,23,0.0,0.0,84,0.00,,,0.69,WUHU216HW,2013-08-22 21:45:00,
2013-08-22 17:50:00,75.7,70.2,30.14,NNE,23,0.0,0.0,83,0.00,,,0.69,WUHU216HW,2013-08-22 21:50:00,
2013-08-22 17:55:00,75.9,70.0,30.13,NNE,23,0.0,0.0,82,0.00,,,0.69,WUHU216HW,2013-08-22 21:55:00,
2013-08-22 18:00:00,75.7,69.8,30.13,NNE,23,0.0,0.0,82,0.00,,,0.69,WUHU216HW,2013-08-22 22:00:00,
2013-08-22 18:05:00,75.5,69.3,30.14,NNE,23,0.0,0.0,81,0.00,,,0.69,WUHU216HW,2013-08-22 22:05:00,
2013-08-22 18:10:00,75.3,69.2,30.14,North,0,1.1,1.1,81,0.00,,,0.69,WUHU216HW,2013-08-22 22:10:00,
2013-08-22 18:15:00,75.0,68.7,30.15,NNE,23,0.0,2.0,81,0.00,,,0.69,WUHU216HW,2013-08-22 22:15:00,
2013-08-22 18:20:00,74.6,68.5,30.15,ESE,113,0.0,3.1,81,0.00,,,0.69,WUHU216HW,2013-08-22 22:20:00,
2013-08-22 18:25:00,74.3,67.8,30.15,North,0,0.0,3.1,80,0.00,,,0.69,WUHU216HW,2013-08-22 22:25:00,
2013-08-22 18:30:00,74.1,67.6,30.15,NNW,338,0.0,0.0,80,0.00,,,0.69,WUHU216HW,2013-08-22 22:30:00,
2013-08-22 18:35:00,74.1,67.6,30.15,North,0,0.0,0.0,80,0.00,,,0.69,WUHU216HW,2013-08-22 22:35:00,
2013-08-22 18:40:00,73.9,67.4,30.16,North,0,0.0,0.0,80,0.00,,,0.69,WUHU216HW,2013-08-22 22:40:00,
2013-08-22 18:45:00,73.9,67.4,30.16,NE,45,0.0,0.0,80,0.00,,,0.69,WUHU216HW,2013-08-22 22:45:00,
2013-08-22 18:50:00,73.7,67.2,30.15,NE,45,0.0,0.0,80,0.00,,,0.69,WUHU216HW,2013-08-22 22:50:00,
2013-08-22 18:55:00,73.5,67.1,30.16,ESE,113,0.0,0.0,80,0.00,,,0.69,WUHU216HW,2013-08-22 22:55:00,
2013-08-22 19:00:00,73.4,66.9,30.16,ENE,68,0.0,0.0,80,0.00,,,0.69,WUHU216HW,2013-08-22 23:00:00,
2013-08-22 19:05:00,73.2,66.7,30.16,ENE,68,0.0,0.0,80,0.00,,,0.69,WUHU216HW,2013-08-22 23:05:00,
2013-08-22 19:10:00,73.2,66.7,30.16,ENE,68,0.0,0.0,80,0.00,,,0.69,WUHU216HW,2013-08-22 23:10:00,
2013-08-22 19:15:00,72.8,66.2,30.16,East,90,0.0,0.0,80,0.00,,,0.69,WUHU216HW,2013-08-22 23:15:00,
2013-08-22 19:20:00,72.6,66.2,30.16,East,90,0.0,0.0,80,0.00,,,0.69,WUHU216HW,2013-08-22 23:20:00,
2013-08-22 19:25:00,72.5,66.0,30.16,East,90,0.0,0.0,80,0.00,,,0.69,WUHU216HW,2013-08-22 23:25:00,
2013-08-22 19:30:00,72.3,65.8,30.16,East,90,0.0,0.0,80,0.00,,,0.69,WUHU216HW,2013-08-22 23:30:00,
2013-08-22 19:35:00,72.1,65.6,30.16,East,90,0.0,0.0,80,0.00,,,0.69,WUHU216HW,2013-08-22 23:35:00,
2013-08-22 19:40:00,72.1,66.0,30.16,East,90,0.0,0.0,81,0.00,,,0.69,WUHU216HW,2013-08-22 23:40:00,
2013-08-22 19:45:00,71.9,66.0,30.16,East,90,0.0,0.0,81,0.00,,,0.69,WUHU216HW,2013-08-22 23:45:00,
2013-08-22 19:50:00,71.9,65.8,30.16,East,90,0.0,0.0,81,0.00,,,0.69,WUHU216HW,2013-08-22 23:50:00,
2013-08-22 19:55:00,71.7,65.6,30.16,East,90,0.0,0.0,81,0.00,,,0.69,WUHU216HW,2013-08-22 23:55:00,
2013-08-22 20:00:00,71.7,65.9,30.16,East,90,0.0,0.0,82,0.00,,,0.69,WUHU216HW,2013-08-23 00:00:00,
2013-08-22 20:05:00,71.6,65.8,30.16,East,90,0.0,0.0,82,0.00,,,0.69,WUHU216HW,2013-08-23 00:05:00,
2013-08-22 20:10:00,71.6,65.8,30.16,East,90,0.0,0.0,82,0.00,,,0.69,WUHU216HW,2013-08-23 00:10:00,
2013-08-22 20:15:00,71.6,65.8,30.17,East,90,0.0,0.0,82,0.00,,,0.69,WUHU216HW,2013-08-23 00:15:00,
2013-08-22 20:20:00,71.4,65.6,30.17,East,90,0.0,0.0,82,0.00,,,0.69,WUHU216HW,2013-08-23 00:20:00,
2013-08-22 20:25:00,71.4,65.6,30.17,East,90,0.0,0.0,82,0.00,,,0.69,WUHU216HW,2013-08-23 00:25:00,
2013-08-22 20:30:00,71.2,65.4,30.18,East,90,0.0,0.0,82,0.00,,,0.69,WUHU216HW,2013-08-23 00:30:00,
2013-08-22 20:35:00,71.0,65.6,30.18,ENE,68,0.0,0.0,83,0.00,,,0.69,WUHU216HW,2013-08-23 00:35:00,
2013-08-22 20:40:00,70.8,65.4,30.18,SW,225,0.0,0.0,83,0.00,,,0.69,WUHU216HW,2013-08-23 00:40:00,
2013-08-22 20:45:00,70.7,65.2,30.18,SW,225,0.0,0.0,83,0.00,,,0.69,WUHU216HW,2013-08-23 00:45:00,
2013-08-22 20:50:00,70.5,65.4,30.18,West,270,0.0,0.0,84,0.00,,,0.69,WUHU216HW,2013-08-23 00:50:00,
2013-08-22 20:55:00,70.5,65.4,30.18,West,270,0.0,0.0,84,0.00,,,0.69,WUHU216HW,2013-08-23 00:55:00,
2013-08-22 21:00:00,70.5,65.4,30.18,West,270,0.0,0.0,84,0.00,,,0.69,WUHU216HW,2013-08-23 01:00:00,
2013-08-22 21:05:00,70.5,65.4,30.18,West,270,0.0,0.0,84,0.00,,,0.69,WUHU216HW,2013-08-23 01:05:00,
2013-08-22 21:10:00,70.5,65.4,30.18,West,270,1.3,1.3,84,0.00,,,0.69,WUHU216HW,2013-08-23 01:10:00,
2013-08-22 21:15:00,70.5,65.7,30.18,SW,225,0.8,1.3,85,0.00,,,0.69,WUHU216HW,2013-08-23 01:15:00,
2013-08-22 21:20:00,70.3,65.5,30.18,SW,225,0.0,1.1,85,0.00,,,0.69,WUHU216HW,2013-08-23 01:20:00,
2013-08-22 21:25:00,70.3,65.5,30.18,SW,225,0.0,1.1,85,0.00,,,0.69,WUHU216HW,2013-08-23 01:25:00,
2013-08-22 21:30:00,70.3,65.9,30.19,SW,225,0.0,0.0,86,0.00,,,0.69,WUHU216HW,2013-08-23 01:30:00,
2013-08-22 21:35:00,70.1,65.7,30.19,SW,225,0.0,3.5,86,0.00,,,0.69,WUHU216HW,2013-08-23 01:35:00,
2013-08-22 21:40:00,70.1,65.7,30.19,SW,225,2.2,3.8,86,0.00,,,0.69,WUHU216HW,2013-08-23 01:40:00,
2013-08-22 21:45:00,69.9,65.8,30.20,WNW,293,2.2,6.0,87,0.00,,,0.69,WUHU216HW,2013-08-23 01:45:00,
2013-08-22 21:50:00,69.9,65.8,30.19,WNW,293,0.0,6.0,87,0.00,,,0.69,WUHU216HW,2013-08-23 01:50:00,
2013-08-22 21:55:00,69.9,65.5,30.20,SSW,203,3.1,4.4,86,0.00,,,0.69,WUHU216HW,2013-08-23 01:55:00,
2013-08-22 22:00:00,69.9,65.5,30.20,SW,225,2.4,3.1,86,0.00,,,0.69,WUHU216HW,2013-08-23 02:00:00,
2013-08-22 22:05:00,70.1,65.7,30.20,SW,225,0.0,3.1,86,0.00,,,0.69,WUHU216HW,2013-08-23 02:05:00,
2013-08-22 22:10:00,70.1,65.7,30.20,SSW,203,1.3,3.1,86,0.00,,,0.69,WUHU216HW,2013-08-23 02:10:00,
2013-08-22 22:15:00,70.1,65.7,30.21,SW,225,0.0,3.1,86,0.00,,,0.69,WUHU216HW,2013-08-23 02:15:00,
2013-08-22 22:20:00,70.1,65.7,30.21,SW,225,1.7,1.7,86,0.00,,,0.69,WUHU216HW,2013-08-23 02:20:00,
2013-08-22 22:25:00,70.1,65.7,30.21,West,270,0.0,1.7,86,0.00,,,0.69,WUHU216HW,2013-08-23 02:25:00,
2013-08-22 22:30:00,69.9,65.2,30.21,NNE,23,0.0,0.0,85,0.00,,,0.69,WUHU216HW,2013-08-23 02:30:00,
2013-08-22 22:35:00,69.9,65.5,30.21,WNW,293,0.8,2.0,86,0.00,,,0.69,WUHU216HW,2013-08-23 02:35:00,
2013-08-22 22:40:00,69.9,65.5,30.21,NNW,338,0.0,2.0,86,0.00,,,0.69,WUHU216HW,2013-08-23 02:40:00,
2013-08-22 22:45:00,69.9,65.5,30.21,WNW,293,0.0,0.0,86,0.00,,,0.69,WUHU216HW,2013-08-23 02:45:00,
2013-08-22 22:50:00,69.9,65.5,30.21,WSW,248,0.8,0.8,86,0.00,,,0.69,WUHU216HW,2013-08-23 02:50:00,
2013-08-22 22:55:00,69.9,65.5,30.21,WSW,248,0.0,0.8,86,0.00,,,0.69,WUHU216HW,2013-08-23 02:55:00,
2013-08-22 23:00:00,69.9,65.5,30.21,WSW,248,0.0,0.0,86,0.00,,,0.69,WUHU216HW,2013-08-23 03:00:00,
2013-08-22 23:05:00,69.9,65.8,30.21,West,270,0.0,0.8,87,0.00,,,0.69,WUHU216HW,2013-08-23 03:05:00,
2013-08-22 23:10:00,69.9,65.8,30.21,WSW,248,0.0,0.8,87,0.00,,,0.69,WUHU216HW,2013-08-23 03:10:00,
2013-08-22 23:15:00,69.8,65.7,30.22,WNW,293,0.0,0.0,87,0.00,,,0.69,WUHU216HW,2013-08-23 03:15:00,
2013-08-22 23:20:00,69.8,65.7,30.22,West,270,3.8,3.8,87,0.00,,,0.69,WUHU216HW,2013-08-23 03:20:00,
2013-08-22 23:25:00,69.6,65.8,30.22,NNW,338,0.0,3.8,88,0.00,,,0.69,WUHU216HW,2013-08-23 03:25:00,
2013-08-22 23:30:00,69.6,65.8,30.21,West,270,0.0,2.0,88,0.00,,,0.69,WUHU216HW,2013-08-23 03:30:00,
2013-08-22 23:35:00,69.6,65.8,30.21,West,270,0.0,0.0,88,0.00,,,0.69,WUHU216HW,2013-08-23 03:35:00,
2013-08-22 23:40:00,69.6,65.8,30.21,North,0,0.0,0.8,88,0.00,,,0.69,WUHU216HW,2013-08-23 03:40:00,
2013-08-22 23:45:00,69.6,65.8,30.21,North,0,0.0,0.8,88,0.00,,,0.69,WUHU216HW,2013-08-23 03:45:00,
2013-08-22 23:50:00,69.4,65.6,30.21,North,0,0.0,0.0,88,0.00,,,0.69,WUHU216HW,2013-08-23 03:50:00,
2013-08-22 23:55:00,69.4,65.6,30.21,North,0,0.0,0.0,88,0.00,,,0.69,WUHU216HW,2013-08-23 03:55:00,